Total_Precipitation_Accumulation
1.91 2.12 2.43 2.92 3.72 4.46 5.14 5.24 5.48 5.01 4.37 3.84 3.46 3.35 3.15 2.83 2.71 2.57 2.39 2.24 2.03 1.89 2.08 1.93 1.97 1.83 1.89 1.92 2.04 2.27 2.38 2.04 2.17 2.59 2.18 1.56 1.22 1.22 1.08 1.03 1.07 1.09 1.15
2.02 2.37 2.90 3.29 3.31 3.85 4.56 4.61 4.31 4.08 3.64 3.26 3.10 2.93 2.87 2.55 2.35 2.20 2.18 1.98 1.83 1.83 1.84 1.95 1.83 1.78 1.86 1.87 1.94 2.16 2.15 1.89 2.08 2.54 2.66 2.12 1.73 1.42 1.03 1.01 1.05 1.17 1.36
1.88 2.31 2.73 3.16 3.13 3.51 3.60 3.23 3.07 3.15 3.09 2.93 2.81 2.68 2.68 2.48 2.21 2.02 1.99 1.82 1.62 1.62 1.64 1.63 1.68 1.78 1.60 1.74 1.91 2.05 2.17 2.05 1.97 2.23 2.65 2.45 2.09 1.76 1.40 1.27 1.35 1.46 1.59
1.34 1.63 1.97 2.39 2.58 2.67 2.59 2.55 2.53 2.57 2.76 2.77 2.54 2.35 2.07 1.97 1.90 1.78 1.82 1.80 1.57 1.49 1.50 1.48 1.63 1.70 1.64 1.83 1.59 1.71 2.00 2.21 2.03 2.02 2.07 2.08 2.29 2.29 1.90 1.55 1.42 1.54 1.67
1.03 1.17 1.27 1.48 1.77 2.02 2.08 2.07 2.34 2.43 2.46 2.45 2.39 2.39 2.12 1.94 1.89 1.99 2.19 2.10 1.79 1.48 1.33 1.42 1.57 1.65 1.68 1.75 1.70 1.80 1.78 1.86 1.88 1.93 1.92 2.02 2.24 2.14 2.08 1.90 1.71 1.64 1.49
0.79 0.98 1.03 1.06 1.20 1.35 1.48 1.60 1.86 2.07 2.14 2.11 2.12 2.17 2.17 2.12 1.95 1.88 1.93 1.84 1.70 1.52 1.35 1.38 1.59 1.65 1.69 1.71 1.73 1.71 1.65 1.72 1.80 1.85 1.88 2.02 2.04 2.00 2.11 2.00 1.82 1.74 1.49
0.61 0.81 0.80 0.84 0.95 0.98 1.09 1.27 1.48 1.64 1.76 1.84 1.90 1.96 2.13 2.06 1.84 1.65 1.67 1.64 1.49 1.41 1.38 1.36 1.63 1.73 1.72 1.71 1.78 1.75 1.73 1.82 1.87 1.88 1.92 1.96 1.92 1.94 2.11 2.14 1.89 1.78 1.60
0.55 0.62 0.57 0.58 0.73 0.80 0.88 1.04 1.17 1.26 1.38 1.60 1.82 1.79 1.89 1.75 1.62 1.73 1.63 1.52 1.33 1.36 1.56 1.67 1.70 1.67 1.71 1.74 1.96 1.82 1.82 1.90 1.92 1.84 2.11 2.06 1.91 2.09 2.28 2.44 2.48 2.19 1.99
0.52 0.50 0.44 0.45 0.49 0.54 0.62 0.79 1.07 1.16 1.21 1.29 1.51 1.61 1.59 1.60 1.66 1.78 1.73 1.61 1.53 1.40 1.57 1.72 1.81 1.72 1.70 1.80 2.01 1.97 2.00 2.10 2.02 2.02 2.24 2.19 2.07 2.10 2.16 2.39 2.64 2.68 2.44
0.59 0.61 0.45 0.40 0.42 0.42 0.51 0.62 0.81 1.02 1.20 1.20 1.20 1.25 1.48 1.55 1.66 1.70 1.59 1.58 1.56 1.55 1.60 1.57 1.60 1.58 1.58 1.71 2.00 2.01 2.06 2.22 2.17 2.15 2.19 2.20 2.10 2.16 2.13 2.24 2.53 2.77 2.79
0.50 0.56 0.39 0.32 0.36 0.39 0.47 0.60 0.74 1.01 1.19 1.10 1.13 1.26 1.42 1.51 1.56 1.69 1.67 1.61 1.58 1.61 1.55 1.51 1.52 1.49 1.42 1.50 1.69 1.82 2.02 2.15 2.21 2.19 2.23 2.23 2.32 2.35 2.22 2.30 2.41 2.59 2.75
0.52 0.54 0.45 0.47 0.50 0.54 0.58 0.68 0.77 0.90 1.02 1.07 1.16 1.23 1.34 1.42 1.45 1.49 1.58 1.65 1.62 1.68 1.64 1.58 1.55 1.42 1.40 1.50 1.62 1.77 1.94 2.09 2.20 2.31 2.39 2.19 2.25 2.38 2.32 2.30 2.33 2.42 2.68
0.61 0.58 0.60 0.67 0.64 0.65 0.74 0.81 0.87 0.88 0.99 1.16 1.18 1.15 1.22 1.21 1.26 1.34 1.42 1.54 1.60 1.63 1.68 1.68 1.60 1.54 1.58 1.66 1.73 1.80 1.94 2.06 2.14 2.24 2.23 2.17 2.30 2.22 2.25 2.32 2.30 2.28 2.33
0.59 0.53 0.58 0.62 0.66 0.68 0.72 0.80 0.87 0.92 1.00 1.01 1.03 1.07 1.11 1.15 1.25 1.35 1.39 1.44 1.42 1.48 1.51 1.51 1.59 1.62 1.67 1.71 1.71 1.71 1.75 1.83 1.91 1.90 1.81 1.75 1.81 1.89 2.03 2.04 2.05 2.12 2.20
0.54 0.45 0.45 0.54 0.64 0.70 0.72 0.79 0.85 0.94 1.08 1.08 1.06 1.10 1.16 1.16 1.20 1.24 1.25 1.27 1.34 1.36 1.52 1.56 1.64 1.70 1.68 1.59 1.63 1.63 1.55 1.73 1.70 1.57 1.51 1.52 1.62 1.64 1.72 1.65 1.74 1.90 1.99
0.55 0.53 0.53 0.60 0.64 0.66 0.68 0.71 0.72 0.82 0.98 1.06 1.16 1.25 1.24 1.14 1.18 1.19 1.17 1.22 1.33 1.42 1.52 1.58 1.69 1.74 1.59 1.63 1.66 1.67 1.64 1.70 1.66 1.59 1.52 1.41 1.41 1.40 1.44 1.48 1.53 1.66 1.79
0.51 0.58 0.63 0.65 0.65 0.65 0.63 0.64 0.62 0.74 1.02 1.12 1.14 1.28 1.35 1.25 1.30 1.33 1.32 1.33 1.38 1.49 1.57 1.71 1.78 1.76 1.79 1.69 1.56 1.58 1.56 1.61 1.65 1.67 1.66 1.40 1.22 1.32 1.31 1.44 1.41 1.38 1.44
0.50 0.58 0.60 0.61 0.63 0.64 0.65 0.65 0.66 0.73 0.98 1.15 1.21 1.41 1.56 1.46 1.47 1.47 1.49 1.52 1.57 1.62 1.75 1.79 1.71 1.68 1.71 1.63 1.39 1.32 1.24 1.35 1.46 1.54 1.60 1.58 1.48 1.45 1.46 1.52 1.51 1.44 1.43
0.59 0.61 0.65 0.67 0.73 0.80 0.82 0.82 0.89 0.99 1.13 1.25 1.36 1.58 1.77 1.81 1.78 1.72 1.80 1.84 1.85 1.87 1.93 1.97 1.92 1.80 1.76 1.57 1.27 1.15 1.13 1.27 1.35 1.40 1.40 1.38 1.30 1.31 1.24 1.27 1.35 1.36 1.33
0.65 0.77 0.87 0.86 0.87 0.95 0.95 0.98 1.09 1.28 1.41 1.43 1.45 1.56 1.75 1.83 1.81 1.80 1.95 2.08 2.10 2.07 2.09 1.98 1.85 1.75 1.72 1.64 1.33 1.16 1.13 1.28 1.36 1.46 1.44 1.40 1.32 1.28 1.14 1.11 1.18 1.18 1.19
0.66 0.72 0.75 0.86 0.97 1.07 1.14 1.24 1.28 1.36 1.40 1.41 1.44 1.53 1.76 2.05 1.98 2.00 2.06 2.16 2.20 2.22 2.23 2.14 2.02 1.89 1.83 1.79 1.47 1.30 1.24 1.33 1.39 1.34 1.35 1.33 1.29 1.09 0.99 0.98 1.04 1.09 1.08
0.70 0.71 0.71 0.82 0.99 1.18 1.35 1.39 1.38 1.40 1.48 1.49 1.51 1.59 1.82 1.92 1.97 2.09 2.14 2.25 2.34 2.33 2.29 2.29 2.15 2.08 1.99 1.73 1.46 1.27 1.25 1.34 1.45 1.44 1.40 1.36 1.22 0.98 0.87 0.78 0.75 0.79 0.79
0.74 0.81 0.83 0.88 0.98 1.15 1.36 1.49 1.50 1.49 1.47 1.44 1.44 1.53 1.66 1.73 1.86 1.94 1.89 1.94 2.05 2.05 2.08 2.12 2.08 2.09 2.17 2.03 1.59 1.29 1.21 1.27 1.38 1.52 1.59 1.39 1.21 1.07 0.93 0.86 0.78 0.70 0.67
0.88 0.90 0.91 0.93 1.00 1.09 1.27 1.41 1.39 1.41 1.44 1.38 1.34 1.44 1.63 1.73 1.80 1.86 1.84 1.89 1.95 1.99 2.05 2.06 2.01 2.02 2.16 2.16 1.83 1.51 1.31 1.21 1.18 1.22 1.25 1.17 1.11 1.00 0.89 0.81 0.72 0.64 0.68
0.91 0.88 0.87 0.91 0.93 1.01 1.21 1.35 1.36 1.39 1.47 1.44 1.39 1.45 1.55 1.65 1.79 1.84 1.87 1.89 1.89 1.86 1.85 1.86 1.82 1.82 1.93 1.93 1.71 1.51 1.36 1.23 1.18 1.18 1.23 1.22 1.21 1.11 1.01 0.93 0.88 0.87 0.88
0.90 0.93 0.95 0.94 0.93 1.00 1.15 1.27 1.43 1.58 1.61 1.53 1.48 1.44 1.41 1.48 1.56 1.63 1.59 1.53 1.49 1.47 1.41 1.42 1.33 1.32 1.47 1.46 1.22 1.09 1.11 1.09 1.05 1.06 1.14 1.21 1.25 1.20 1.13 1.08 1.02 1.03 1.00